Location: Bovenkerk
(52.2915°N, 4.8336°E)
Time: 23:55:51
(UTC+00:00)

Iridium 4 Rocket - Pass Details

Date: 09 April 2020
Orbit: 586 x 904 km, 86.9° (Epoch: 03 June)

Event Time Altitude Azimuth Distance (km) Brightness Sun altitude
Rises 19:50:39 0° 2° (N) 2,872 6.9 -12.3°
Reaches altitude 10° 19:53:02 10° 11° (N) 1,942 5.9 -12.6°
Maximum altitude 19:56:57 36° 79° (E) 944 3.6 -13.1°
Enters shadow 19:59:07 21° 132° (SE) 1,332 4.1 -13.4°
